Location: Altleiningen
(49.5078°N, 8.0741°E)
Time: 04:58:14
(UTC+00:00)

Cosmos 2084 Rocket - Pass Details

Date: 03 March 2021
Orbit: 528 x 652 km, 62.8° (Epoch: 11 April)

Event Time Altitude Azimuth Distance (km) Brightness Sun altitude
Rises 18:23:17 0° 314° (NW) 2,800 7.8 -12.1°
Reaches altitude 10° 18:25:30 10° 311° (NW) 1,918 6.9 -12.4°
Maximum altitude 18:29:47 60° 231° (SW) 697 4.0 -13.1°
Drops below altitude 10° 18:34:12 10° 153° (SSE) 1,983 5.8 -13.8°
Enters shadow 18:35:02 - 151° (SSE) 2,313 6.2 -14.0°
